Regional Weather Roundup
Issued by NWS

Home | Current Version | Previous Version | Graphics & Text | Print | Product List | Glossary On
Versions: 1 2 3 4 5 6 7 8 9 10 11 12 13 14 15 16 17 18 19 20 21 22 23 24 25 26 27 28 29 30 31 32 33 34 35 36 37 38 39 40 41 42 43 44 45 46 47 48 49 50
000
ASUS43 KLSX 251707
RWRMO

WEATHER SUMMARY FOR MISSOURI
NATIONAL WEATHER SERVICE SPRINGFIELD MO
1200 PM CDT SAT APR 25 2015

NOTE: "FAIR" INDICATES FEW OR NO CLOUDS BELOW 12,000 FEET WITH NO
       SIGNIFICANT WEATHER AND/OR OBSTRUCTIONS TO VISIBILITY.
       CURRENT SKY AND/OR WEATHER CONDITIONS ARE NOT AVAILABLE FOR
       CHILLICOTHE AND FARMINGTON.

MOZ001>031-035>038-043-044-053-054-251800-
...NORTHERN AND WESTERN MISSOURI...

CITY           SKY/WX    TMP DP  RH WIND       PRES   REMARKS
KANSAS CTY INT LGT RAIN  58  56  93 NW3       29.50R FOG
KANSAS C DTWN  LGT RAIN  61  57  87 NW3       29.48R
LEE`S SUMMIT   CLOUDY    63  57  81 W6        29.49R
ST JOSEPH      CLOUDY    57  55  93 NE14      29.52R
CHILLICOTHE      N/A     55  53  93 NE10      29.51R
KIRKSVILLE     RAIN      52  52 100 E12       29.53R FOG

$$
MOZ066>068-077>081-088>096-101>105-251800-
...SOUTHWEST MISSOURI...

CITY           SKY/WX    TMP DP  RH WIND       PRES   REMARKS
SPRINGFIELD    PTSUNNY   69  53  56 W17G28    29.54R
JOPLIN         SUNNY     71  54  54 W15G24    29.56F

$$
MOZ032>034-039>042-045>050-055>058-069>072-251800-
...CENTRAL MISSOURI...

CITY           SKY/WX    TMP DP  RH WIND       PRES   REMARKS
COLUMBIA       LGT RAIN  65  58  78 SW12      29.46F
JEFFERSON CITY LGT RAIN  63  59  87 VRB3      29.47R
ROLLA          CLOUDY    70  53  54 SW25      29.46F
SEDALIA        MOSUNNY   68  57  68 W15G24    29.47S
WHITEMAN AFB   PTSUNNY   67  55  64 W15       29.46R
WARRENSBURG    CLOUDY    64  54  68 W9        29.48R
OSAGE BEACH    PTSUNNY   72  54  53 SW17G23   29.48S

$$
MOZ051-052-059>065-251800-
...EAST CENTRAL MISSOURI...

CITY           SKY/WX    TMP DP  RH WIND       PRES   REMARKS
ST LOUIS INTL  CLOUDY    66  57  72 S7        29.51F
SPIRIT OF STL  CLOUDY    65  58  78 VRB5      29.49F
ST CHARLES     CLOUDY    63  57  81 S6        29.50F

$$
MOZ072>076-082>087-097>100-106>115-251800-
...SOUTH CENTRAL AND SOUTHEAST MISSOURI...

CITY           SKY/WX    TMP DP  RH WIND       PRES   REMARKS
CAPE GIRARDEAU PTSUNNY   70  61  73 SW14G23   29.53F
FARMINGTON     MOSUNNY   66  57  72 SW12G20   29.55R
POPLAR BLUFF   PTSUNNY   71  60  68 SW16G28   29.52F
WEST PLAINS    MOSUNNY   74  51  44 W14G33    29.53F

$$


USA.gov is the U.S. government's official web portal to all federal, state and local government web resources and services.